[[{"header":{"parameterUnit":"m.s-1","parameterCategory":1,"la1":30.2991,"la2":30.254,"lo1":-89.0895,"lo2":-89.0444,"dy":0.0017,"dx":0.0017,"nx":28,"ny":28,"refTime":"2026-02-06T09:00:00:Z","depth":0,"parameterNumber":2,"parameterNumberName":"U-component_of_WINDS"},"data":[0,0,0,0,0,0,0,0,0,0,0,0,0,0,0,0,0,0,0,0,0,0,0,0,0,0,0,0,0,0,0,0,0,0,0,0,0,0,0,0,0,0,0,0,0,0,0,0,0,0,0,0,0,0,0,0,0,0,3.703,3.7032,0,3.717,3.7172,3.7173,3.7115,3.7112,3.7108,3.7105,3.7249,3.7256,3.7263,0,0,0,0,0,0,0,0,0,0,0,0,0,3.6712,3.6718,3.703,3.7032,3.7033,3.717,3.7172,3.7174,3.7116,3.7112,3.7107,3.7104,3.7247,3.7255,3.7264,0,0,0,0,0,0,0,0,0,0,0,0,0,3.6851,3.672,3.703,3.7021,3.7021,3.7169,3.7172,3.7174,3.7116,3.7111,3.7106,3.7102,3.7244,3.7255,3.7265,3.743,0,0,3.7297,3.7301,0,0,0,0,0,0,0,0,3.6843,3.6863,3.702,3.7022,3.7023,3.712,3.7112,3.726,3.7118,3.708,3.7105,3.7099,3.721,3.7223,3.7261,3.7437,3.7443,3.7298,3.7304,3.7309,3.7311,0,0,0,0,0,0,0,3.6833,3.6856,3.7085,3.7023,3.7024,3.701,3.7024,3.714,3.7172,3.7083,3.7079,3.7097,3.721,3.7251,3.7264,3.7445,3.7297,3.7307,3.7313,3.7317,3.7762,3.7768,0,0,0,0,0,0,3.6824,3.6849,3.7081,3.709,3.6919,3.702,3.7036,3.7094,3.7171,3.7177,3.7101,3.7094,3.7235,3.7252,3.7269,3.7466,3.7308,3.7318,3.7324,3.7757,3.7764,3.777,0,0,0,0,0,0,3.6817,3.6845,3.7075,3.6968,3.6996,3.703,3.7096,3.7099,3.714,3.7184,3.7189,3.7137,3.7232,3.7254,3.739,3.7471,3.7323,3.7332,3.775,3.7759,3.7767,3.7864,0,0,0,0,0,0,3.6808,3.6843,3.6906,3.697,3.7002,3.7195,3.7101,3.7106,3.7158,3.715,3.7219,3.7225,3.723,3.7375,3.74,3.7482,3.7341,3.7743,3.7754,3.7764,3.7853,3.7874,3.7892,0,0,0,0,0,3.6797,3.6928,3.691,3.6938,3.7082,3.72,3.7218,3.722,3.7165,3.7228,3.7256,3.7223,3.7458,3.7389,3.7418,3.7504,3.7738,3.7751,3.7763,3.7845,3.787,3.7892,0,0,0,0,0,0,3.6874,3.6937,3.6917,3.7072,3.7131,3.7189,3.727,3.7247,3.7323,3.7312,3.7312,3.7328,3.7468,3.75,3.7422,3.7667,3.7589,3.7608,3.7642,3.7666,3.7685,3.7675,3.7349,0,0,0,0,0,3.6909,3.6999,3.7049,3.7181,3.7212,3.7236,3.7287,3.7284,3.7345,3.7369,3.7407,3.7468,3.7554,3.7612,3.7695,3.7857,3.7871,3.7931,3.795,3.7966,3.7982,3.807,3.8097,3.7811,3.7811,3.781,0,0,3.6982,3.7027,3.7084,3.7198,3.7243,3.7336,3.7257,3.7359,3.7429,3.7385,3.7515,3.7546,3.7613,3.7763,3.7831,3.7793,3.8064,3.7982,3.7994,3.8002,3.8085,3.8112,3.8136,3.7819,3.7818,3.7816,0,0,3.7163,3.7207,3.7322,3.7368,3.7437,3.7452,3.748,3.7542,3.756,3.7691,3.7659,3.7742,3.7892,3.7941,3.7985,3.8184,3.8156,3.8211,3.8312,3.8398,3.842,3.844,3.8511,3.8536,3.8227,3.8227,3.8227,0,3.7246,3.7385,3.7384,3.7488,3.7539,3.7503,3.7619,3.7664,3.7757,3.7792,3.7749,3.7936,3.7979,3.8139,3.8188,3.8225,3.8256,3.8203,3.8417,3.8437,3.8456,3.8523,3.8549,3.8233,3.8233,3.8232,3.8231,0,3.7482,3.7579,3.7664,3.7754,3.7814,3.7924,3.7939,3.8,3.7991,3.801,3.8144,3.8194,3.8286,3.8323,3.8316,3.8483,3.8458,3.8416,3.8338,3.8489,3.8552,3.8578,3.8242,3.824,3.8238,3.8237,0,0,3.7717,3.7803,3.7835,3.7874,3.7947,3.8022,3.813,3.8219,3.8271,3.8336,3.8426,3.8554,3.8515,3.8566,3.8563,3.8639,3.8792,3.8587,3.8589,3.8623,3.8979,3.901,3.904,3.8774,3.8779,3.8783,3.8973,0,3.7903,3.8092,3.8094,3.8268,3.8357,3.8324,3.8417,3.8472,3.8493,3.8572,3.8595,3.8685,3.8627,3.8658,3.873,3.8758,3.8863,3.8744,3.8858,3.8862,3.8842,3.9073,3.9106,3.9283,3.8998,3.9002,3.9005,0,3.8147,3.8218,3.8401,3.846,3.8497,3.8582,3.8663,3.8739,3.88,3.881,3.8866,3.8852,3.8962,3.888,3.9031,3.895,3.8996,3.9017,3.9024,3.9034,3.8943,3.909,3.934,3.9367,3.9044,3.9041,3.9038,0,3.8299,3.8441,3.8569,3.8604,3.8676,3.8736,3.8769,3.8825,3.8878,3.8949,3.8984,3.9067,3.9113,3.9177,3.9186,3.9126,3.9337,3.9257,3.9349,3.9349,3.9395,3.9392,3.9656,3.9425,3.9425,3.9424,3.9424,0,3.8507,3.862,3.8638,3.8717,3.8842,3.8842,3.8967,3.8994,3.9044,3.9127,3.9103,3.9182,3.9189,3.9269,3.9277,3.94,3.9421,3.9432,3.9433,3.9435,3.9433,3.9465,3.9453,3.9431,3.943,3.9428,3.9427,0,3.8699,3.8715,3.8852,3.8908,3.8925,3.9015,3.9063,3.9138,3.9156,3.9262,3.9286,3.9315,3.9409,3.9423,3.9534,3.9539,3.9687,3.9675,3.9666,3.9664,3.9756,3.9747,4.005,4.0089,3.9832,3.9835,3.9837,0,3.883,3.8917,3.8982,3.9035,3.9071,3.9158,3.9212,3.9216,3.9273,3.9348,3.9414,3.9505,3.9578,3.9729,3.976,3.9844,3.9834,3.9934,3.9846,3.9845,3.9835,3.983,3.9838,3.9951,3.9954,3.9956,3.9958,0,3.9063,3.9066,3.9145,3.9226,3.9291,3.9355,3.9416,3.9461,3.9473,3.9538,3.9633,3.969,3.9802,3.9892,3.9976,4.0009,3.9986,3.9985,4.0011,4.0014,4.0005,4.0011,3.9712,3.9978,3.9976,3.9975,3.9974,3.9973,3.9229,3.9303,3.936,3.9448,3.9494,3.9551,3.9624,3.965,3.973,3.9821,3.9818,3.9923,3.998,4.009,4.0129,4.021,4.0178,4.0215,4.0225,4.0234,4.0243,3.9992,4.0226,4.0225,4.0224,4.0224,4.0224,0,3.9459,3.9494,3.9575,3.966,3.9729,3.97,3.9766,3.9825,3.9917,3.9973,4.0045,4.0154,4.0242,4.0279,4.0365,4.0423,4.0415,4.0446,4.0441,4.0449,4.0267,4.0236,4.0451,4.0451,4.0451,4.0451,4.0451,4.0451,3.9587,3.9712,3.9722,3.9869,3.9903,4.0004,4.0044,4.0096,4.0141,4.0263,4.0336,4.0359,4.0407,4.0496,4.0575,4.0584,4.0616,4.0652,4.0656,4.0485,4.0462,4.044,4.0411,4.066,4.066,4.0832,4.0833,4.0835]},{"header":{"parameterUnit":"m.s-1","parameterCategory":1,"la1":30.2991,"la2":30.254,"lo1":-89.0895,"lo2":-89.0444,"dy":0.0017,"dx":0.0017,"nx":28,"ny":28,"refTime":"2026-02-06T09:00:00:Z","depth":0,"parameterNumber":3,"parameterNumberName":"V-component_of_WINDS"},"data":[0,0,0,0,0,0,0,0,0,0,0,0,0,0,0,0,0,0,0,0,0,0,0,0,0,0,0,0,0,0,0,0,0,0,0,0,0,0,0,0,0,0,0,0,0,0,0,0,0,0,0,0,0,0,0,0,0,0,0.7835,0.7835,0,0.7785,0.7784,0.7784,0.7733,0.7732,0.7731,0.7731,0.7679,0.7678,0.7678,0,0,0,0,0,0,0,0,0,0,0,0,0,0.7885,0.7885,0.7835,0.7835,0.7834,0.7785,0.7784,0.7784,0.7733,0.7732,0.7731,0.773,0.7679,0.7679,0.7678,0,0,0,0,0,0,0,0,0,0,0,0,0,0.7852,0.7884,0.7835,0.7803,0.7799,0.7785,0.7784,0.7784,0.7733,0.7732,0.7731,0.773,0.768,0.7679,0.7678,0.7692,0,0,0.7674,0.7674,0,0,0,0,0,0,0,0,0.7854,0.785,0.7808,0.7805,0.7801,0.7764,0.7783,0.7753,0.7733,0.7758,0.773,0.7729,0.7708,0.7705,0.7698,0.7689,0.7687,0.7674,0.7674,0.7673,0.7673,0,0,0,0,0,0,0,0.7856,0.7852,0.7815,0.7808,0.7803,0.779,0.7784,0.7777,0.774,0.7756,0.7752,0.7747,0.7706,0.7699,0.7696,0.7686,0.7674,0.7673,0.7673,0.7672,0.7685,0.7685,0,0,0,0,0,0,0.7864,0.7855,0.7817,0.7814,0.7826,0.779,0.7783,0.7777,0.774,0.7733,0.7748,0.7745,0.7701,0.7697,0.7694,0.7707,0.7673,0.7672,0.7671,0.7684,0.7685,0.7686,0,0,0,0,0,0,0.7865,0.7861,0.7819,0.7833,0.7827,0.779,0.7783,0.7776,0.7769,0.7733,0.7726,0.7747,0.77,0.7696,0.7692,0.7704,0.7672,0.7671,0.7682,0.7684,0.7685,0.7733,0,0,0,0,0,0,0.7867,0.7862,0.7868,0.7834,0.7826,0.7819,0.7784,0.7776,0.7767,0.7763,0.7731,0.7725,0.7699,0.7694,0.7691,0.7702,0.767,0.7681,0.7683,0.7685,0.7731,0.7736,0.7741,0,0,0,0,0,0.7869,0.7884,0.7868,0.7864,0.7833,0.782,0.7815,0.7785,0.7769,0.7774,0.775,0.7726,0.7703,0.7694,0.769,0.7701,0.768,0.7683,0.7685,0.7728,0.7735,0.7741,0,0,0,0,0,0,0.7921,0.7879,0.7861,0.7865,0.7846,0.7811,0.7817,0.7794,0.7779,0.7776,0.7739,0.7732,0.7733,0.7716,0.7707,0.7712,0.7688,0.769,0.7723,0.7729,0.7734,0.7738,0.7669,0,0,0,0,0,0.7932,0.7926,0.7889,0.7897,0.7888,0.7854,0.7847,0.7825,0.7804,0.7796,0.7772,0.7753,0.7741,0.7734,0.7721,0.7728,0.7719,0.7733,0.7738,0.7743,0.7745,0.7745,0.775,0.7693,0.7693,0.7693,0,0,0.7957,0.7933,0.7932,0.7906,0.7889,0.7882,0.7848,0.7842,0.7837,0.7795,0.779,0.7772,0.7747,0.7748,0.7748,0.7735,0.7758,0.7746,0.775,0.7749,0.7748,0.7753,0.7758,0.7694,0.7694,0.7694,0,0,0.7999,0.798,0.7984,0.7966,0.794,0.7917,0.7918,0.7885,0.7871,0.7866,0.7834,0.7826,0.7807,0.779,0.7779,0.781,0.7787,0.7807,0.7835,0.7836,0.784,0.7844,0.7854,0.7858,0.7809,0.7809,0.7809,0,0.8033,0.8021,0.7988,0.7984,0.7973,0.7934,0.7937,0.7922,0.7893,0.7886,0.7872,0.7845,0.7826,0.7821,0.7829,0.7822,0.782,0.7811,0.7842,0.7846,0.7849,0.7858,0.7862,0.7812,0.7811,0.7811,0.7811,0,0.8064,0.8056,0.8062,0.8034,0.8024,0.8023,0.7989,0.7982,0.7961,0.7939,0.7932,0.7907,0.7887,0.7884,0.7864,0.7876,0.7869,0.7849,0.7825,0.7857,0.7865,0.7869,0.7815,0.7814,0.7814,0.7813,0,0,0.8138,0.809,0.8093,0.8079,0.8046,0.8039,0.8036,0.8016,0.8011,0.7991,0.7987,0.797,0.795,0.7938,0.7914,0.7915,0.794,0.7894,0.7893,0.7903,0.795,0.7965,0.797,0.7923,0.7924,0.7924,0.7951,0,0.8174,0.8166,0.8134,0.8135,0.8127,0.8089,0.8085,0.8064,0.8043,0.8032,0.8008,0.7996,0.7972,0.7964,0.7962,0.7937,0.7948,0.7935,0.7918,0.7918,0.7925,0.7974,0.799,0.8017,0.7955,0.7955,0.7955,0,0.8214,0.8197,0.8197,0.8162,0.8157,0.8155,0.8133,0.8124,0.8098,0.8082,0.8066,0.804,0.8032,0.8009,0.7998,0.7989,0.798,0.7966,0.7966,0.7964,0.7939,0.7972,0.8025,0.8029,0.796,0.796,0.7959,0,0.8268,0.8244,0.824,0.8229,0.8189,0.8188,0.8171,0.8144,0.8134,0.8114,0.8106,0.8087,0.8076,0.8061,0.8028,0.8015,0.802,0.7994,0.8006,0.8006,0.8009,0.8009,0.8061,0.8004,0.8004,0.8004,0.8003,0,0.831,0.8312,0.8263,0.8261,0.8261,0.8224,0.8224,0.8203,0.8179,0.8171,0.8137,0.813,0.8088,0.8076,0.805,0.8044,0.8039,0.8025,0.8019,0.8028,0.803,0.8022,0.8019,0.8005,0.8004,0.8004,0.8004,0,0.837,0.8338,0.8331,0.8293,0.8283,0.8284,0.8251,0.8246,0.8222,0.8212,0.8208,0.8169,0.8153,0.8119,0.8094,0.8076,0.8075,0.8063,0.8084,0.808,0.8092,0.8091,0.8141,0.8145,0.8086,0.8086,0.8087,0,0.84,0.84,0.8361,0.8353,0.8337,0.8325,0.8313,0.8276,0.8266,0.8235,0.8234,0.8214,0.8197,0.8172,0.8142,0.8121,0.8108,0.8127,0.8105,0.8114,0.8107,0.8108,0.8107,0.8132,0.8133,0.8134,0.8134,0,0.8455,0.8438,0.8424,0.8402,0.839,0.8371,0.8351,0.8346,0.8304,0.8293,0.8276,0.8262,0.8235,0.8216,0.8191,0.8172,0.8145,0.8141,0.8142,0.8152,0.8164,0.8157,0.8097,0.814,0.814,0.8139,0.8139,0.8139,0.85,0.8497,0.8469,0.8453,0.8433,0.8414,0.8408,0.8382,0.8367,0.8342,0.832,0.8304,0.8276,0.8239,0.8221,0.8207,0.8195,0.8197,0.8197,0.8198,0.8202,0.8166,0.8203,0.8202,0.8202,0.8202,0.8202,0,0.8553,0.8532,0.8517,0.8489,0.8476,0.8452,0.8428,0.8418,0.8404,0.838,0.8363,0.8342,0.8322,0.8289,0.8266,0.8261,0.8248,0.8256,0.8256,0.8252,0.8215,0.8216,0.8267,0.8267,0.8267,0.8267,0.8267,0.8267,0.8579,0.8572,0.8552,0.8535,0.8513,0.8498,0.8485,0.8467,0.8447,0.8425,0.8409,0.8387,0.8358,0.8333,0.8313,0.8303,0.8296,0.8308,0.8295,0.8261,0.8255,0.8249,0.825,0.8307,0.8307,0.8332,0.8333,0.8333]}]]